Regional Weather Roundup
Issued by NWS

Home | Current Version | Previous Version | Text Only | Print | Product List | Glossary On
Versions: 1 2 3 4 5 6 7 8 9 10 11 12 13 14 15 16 17 18 19 20 21 22 23 24 25 26 27 28 29 30 31 32 33 34 35 36 37 38 39 40 41 42 43 44 45 46 47 48 49 50
280
ASUS44 KJAN 261710
RWRMS

MISSISSIPPI HOURLY WEATHER ROUNDUP
NATIONAL WEATHER SERVICE JACKSON MS
1200 PM CDT THU MAR 26 2015

NOTE: "FAIR: INDICATES FEW OR NO CLOUDS BELOW 12,000 FEET WITH NO
SIGNIFICANT WEATHER AND/OR OBSTRUCTIONS TO VISIBILITY.

MSZ001>002-007>008-010>013-018>021-025>028-034>036-261800-
NORTHWEST MISSISSIPPI

CITY           SKY/WX    TMP DP  RH WIND       PRES   REMARKS
CLARKSDALE     PTSUNNY   66  57  72 W14       29.91S
CLEVELAND      CLOUDY    67  61  80 SW7       29.90R
GREENWOOD      CLOUDY    70  56  61 VRB7      29.88S
GREENVILLE     CLOUDY    67  57  70 NW7       29.90R
OLIVE BRANCH   CLOUDY    54  54 100 N14       29.93R
OXFORD         PTSUNNY   68  50  52 NW9       29.89S
TUNICA         CLOUDY    52  50  93 N24G31    29.95R
$$

MSZ003>006-009-014>017-022>024-029>033-037>039-261800-
NORTHEAST MISSISSIPPI

CITY           SKY/WX    TMP DP  RH WIND       PRES   REMARKS
COLUMBUS AFB   MOSUNNY   73  52  47 VRB5      29.87S
CORINTH        PTSUNNY   70  55  60 SW8       29.85S
GOLDN TRIANGLE MOSUNNY   75  54  46 SW7       29.88S
STARKVILLE     FAIR      72  52  49 W3        29.87F
TUPELO         PTSUNNY   71  54  54 SW3       29.85F
$$

MSZ040-058-261800-
CENTRAL MISSISSIPPI

CITY           SKY/WX    TMP DP  RH WIND       PRES   REMARKS
JACKSON INTL   PTSUNNY   75  56  51 SW6       29.88F
JACKSON HAWKNS PTSUNNY   76  57  51 W5        29.87F
MERIDIAN KEY   CLOUDY    67  62  84 SE5       29.90F
MERIDIAN NAS   CLOUDY    69  61  75 SW7       29.90F
RAYMOND        FAIR      75  70  83 VRB5      29.86F
VICKSBURG      MOSUNNY   74  60  61 VRB6      29.87F
$$

MSZ059>079-261800-
SOUTH MISSISSIPPI

CITY           SKY/WX    TMP DP  RH WIND       PRES   REMARKS
BROOKHAVEN     FAIR      73  66  78 CALM      29.90S
HATTIESBURG    CLOUDY    71  65  81 SE5       29.90F
MCCOMB         PTSUNNY   72  64  76 S5        29.90S
NATCHEZ        CLOUDY    72  61  68 W3        29.89F
PINE BELT      CLOUDY    70 N/A N/A S3        29.92F
$$

MSZ080>082-261800-
COASTAL MISSISSIPPI

CITY           SKY/WX    TMP DP  RH WIND       PRES   REMARKS
BAY ST LOUIS   TSTM      68  64  88 VRB5      29.93R
BILOXI         RAIN      67  67 100 S6        29.90F FOG
PASCAGOULA     LGT RAIN  67  66  97 S7        29.92F
GULFPORT       RAIN      67  65  93 S7        29.92F FOG
$$



USA.gov is the U.S. government's official web portal to all federal, state and local government web resources and services.